GW6277 Weather Reports


time (UTC)temp
F
wind
direction
speed
knots
gust
knots
rain 1hr
in
rain 24hr
in
rain mn
in
humidity
%
barometer
mb
20260505003748 61 135 0.0 0.0 0.00 0.00 0.00 46 1007.9
20260505003246 61 134 0.9 0.9 0.00 0.00 0.00 46 1007.9
20260505002742 62 141 0.0 0.0 0.00 0.00 0.00 45 1007.8
20260505002239 62 169 0.9 1.7 0.00 0.00 0.00 44 1007.5
20260505001737 62 212 2.6 2.6 0.00 0.00 0.00 44 1007.6
20260505001234 62 165 0.9 1.7 0.00 0.00 0.00 44 1007.5
20260505000731 62 151 0.9 1.7 0.00 0.00 0.00 43 1007.5
20260505000229 62 137 0.0 0.9 0.00 0.00 0.00 43 1007.2
20260504235725 63 201 0.9 1.7 0.00 0.00 0.00 44 1007.0
20260504235221 63 210 3.5 5.2 0.00 0.00 0.00 43 1007.1
20260504234719 63 200 1.7 1.7 0.00 0.00 0.00 43 1006.9
20260504234216 63 191 1.7 2.6 0.00 0.00 0.00 43 1006.8
20260504233712 64 211 2.6 3.5 0.00 0.00 0.00 42 1006.6
20260504233208 64 112 0.0 0.9 0.00 0.00 0.00 41 1006.8
20260504232705 64 200 3.5 5.2 0.00 0.00 0.00 40 1006.7
20260504232202 64 153 0.9 0.9 0.00 0.00 0.00 41 1006.5
20260504231659 65 212 5.2 7.0 0.00 0.00 0.00 40 1006.3
20260504231155 65 163 0.9 0.9 0.00 0.00 0.00 39 1006.4
20260504230651 65 105 0.0 0.9 0.00 0.00 0.00 39 1006.2
20260504230150 66 139 0.0 0.9 0.00 0.00 0.00 39 1006.2
20260504225648 66 216 3.5 6.1 0.00 0.00 0.00 38 1006.1
20260504225144 66 217 1.7 2.6 0.00 0.00 0.00 37 1006.1
20260504224641 67 194 1.7 2.6 0.00 0.00 0.00 37 1005.9
20260504224137 67 143 0.0 0.9 0.00 0.00 0.00 37 1005.7
20260504223635 67 131 1.7 3.5 0.00 0.00 0.00 36 1005.7
20260504223130 67 208 2.6 3.5 0.00 0.00 0.00 35 1005.7
20260504222628 68 156 0.9 0.9 0.00 0.00 0.00 34 1005.8
20260504222125 69 153 0.9 0.9 0.00 0.00 0.00 33 1005.5
20260504221622 69 93 0.9 0.9 0.00 0.00 0.00 33 1005.6
20260504221119 69 193 4.3 6.1 0.00 0.00 0.00 31 1005.4
20260504220615 70 121 0.0 0.0 0.00 0.00 0.00 31 1005.6
20260504220113 70 35 1.7 1.7 0.00 0.00 0.00 31 1005.4
20260504215609 69 162 0.9 0.9 0.00 0.00 0.00 30 1005.7
20260504215107 69 130 0.9 1.7 0.00 0.00 0.00 30 1005.5
20260504214602 69 94 0.0 0.9 0.00 0.00 0.00 32 1005.5
20260504214059 70 42 2.6 2.6 0.00 0.00 0.00 30 1005.6
20260504213555 69 139 0.9 0.9 0.00 0.00 0.00 29 1005.4
20260504213053 70 106 0.9 0.9 0.00 0.00 0.00 31 1005.7
20260504212548 71 124 0.0 0.0 0.00 0.00 0.00 31 1005.5
20260504212046 71 337 1.7 2.6 0.00 0.00 0.00 29 1005.7
20260504211543 71 283 3.5 5.2 0.00 0.00 0.00 29 1005.6
20260504211040 71 199 0.9 1.7 0.00 0.00 0.00 29 1005.5
20260504210537 71 184 2.6 2.6 0.00 0.00 0.00 28 1005.4
20260504210033 72 132 0.0 0.0 0.00 0.00 0.00 28 1005.5
20260504205531 72 92 1.7 2.6 0.00 0.00 0.00 28 1005.2
20260504205029 72 114 0.0 0.9 0.00 0.00 0.00 28 1005.3
20260504204527 72 27 3.5 5.2 0.00 0.00 0.00 27 1005.4
20260504204026 72 212 1.7 1.7 0.00 0.00 0.00 28 1005.3
20260504203523 71 276 3.5 3.5 0.00 0.00 0.00 28 1005.4
20260504203020 72 129 0.0 0.0 0.00 0.00 0.00 29 1005.6
20260504202516 71 107 2.6 3.5 0.00 0.00 0.00 28 1005.5
20260504202013 72 206 3.5 6.1 0.00 0.00 0.00 27 1005.4
20260504201510 71 61 0.9 0.9 0.00 0.00 0.00 27 1005.4
20260504201008 71 126 0.0 0.0 0.00 0.00 0.00 29 1005.4
20260504200504 71 227 0.9 1.7 0.00 0.00 0.00 27 1005.4
20260504200000 71 149 5.2 7.0 0.00 0.00 0.00 27 1005.7
20260504195456 71 1 7.0 7.8 0.00 0.00 0.00 26 1005.4
20260504194953 71 230 2.6 3.5 0.00 0.00 0.00 27 1005.7
20260504194449 71 200 0.9 1.7 0.00 0.00 0.00 28 1005.8
20260504193945 71 176 0.9 1.7 0.00 0.00 0.00 29 1005.7
20260504193443 71 154 0.9 1.7 0.00 0.00 0.00 28 1005.6
20260504192942 71 154 0.9 1.7 0.00 0.00 0.00 29 1005.5
20260504192438 71 13 3.5 5.2 0.00 0.00 0.00 27 1005.6
20260504191937 71 213 5.2 9.6 0.00 0.00 0.00 27 1005.8
20260504191435 71 121 2.6 7.0 0.00 0.00 0.00 27 1005.6
20260504190935 71 124 3.5 6.1 0.00 0.00 0.00 27 1005.9
20260504190432 71 45 1.7 2.6 0.00 0.00 0.00 27 1005.7
20260504185928 71 154 4.3 7.8 0.00 0.00 0.00 26 1006.0
20260504185426 71 209 1.7 2.6 0.00 0.00 0.00 25 1005.9
20260504184921 71 215 3.5 6.1 0.00 0.00 0.00 28 1006.2
20260504184417 70 156 6.1 7.8 0.00 0.00 0.00 25 1005.9
20260504183914 70 226 1.7 2.6 0.00 0.00 0.00 27 1006.0
20260504183411 71 27 5.2 6.1 0.00 0.00 0.00 25 1006.0
20260504182909 71 352 1.7 2.6 0.00 0.00 0.00 28 1006.1
20260504182406 70 166 6.1 7.0 0.00 0.00 0.00 26 1006.2
20260504181902 70 34 0.9 1.7 0.00 0.00 0.00 27 1006.1
20260504181400 71 42 1.7 2.6 0.00 0.00 0.00 26 1006.2
20260504180858 70 221 6.1 8.7 0.00 0.00 0.00 26 1005.9
20260504180356 70 331 3.5 6.1 0.00 0.00 0.00 28 1006.5
20260504175854 70 118 0.9 0.9 0.00 0.00 0.00 28 1006.5
20260504175351 70 132 7.0 7.8 0.00 0.00 0.00 26 1006.5
20260504174849 70 212 1.7 5.2 0.00 0.00 0.00 28 1006.4
20260504174346 70 117 0.9 1.7 0.00 0.00 0.00 30 1006.5
20260504173843 70 264 4.3 11.3 0.00 0.00 0.00 30 1006.5
20260504173340 70 208 6.1 7.8 0.00 0.00 0.00 28 1006.7
20260504172837 70 62 1.7 2.6 0.00 0.00 0.00 28 1006.6
20260504172333 69 128 0.9 1.7 0.00 0.00 0.00 31 1006.6
20260504171829 69 283 3.5 7.0 0.00 0.00 0.00 28 1006.4
20260504171327 69 326 2.6 3.5 0.00 0.00 0.00 26 1006.8
20260504170824 69 202 6.1 11.3 0.00 0.00 0.00 27 1006.3
20260504170320 69 317 2.6 5.2 0.00 0.00 0.00 28 1006.8
20260504160239 67 350 5.2 7.8 0.00 0.00 0.00 31 1007.3
20260504150704 65 335 4.3 7.0 0.00 0.00 0.00 32 1007.8
20260504150201 65 212 3.5 5.2 0.00 0.00 0.00 32 1008.0
20260504141130 63 90 1.7 1.7 0.00 0.00 0.00 36 1007.9
20260504140627 63 206 1.7 2.6 0.00 0.00 0.00 39 1008.3
20260504140122 62 186 2.6 3.5 0.00 0.00 0.00 37 1008.6
20260504130550 58 144 1.7 2.6 0.00 0.00 0.00 41 1009.0
20260504110438 42 142 0.0 0.0 0.00 0.00 0.00 70 1009.4
20260504100355 41 124 0.0 0.0 0.00 0.00 0.00 70 1009.6
20260504081748 43 141 0.0 0.0 0.00 0.00 0.00 68 1009.4
20260504081244 43 141 0.0 0.0 0.00 0.00 0.00 67 1009.1
20260504080741 43 141 0.0 0.0 0.00 0.00 0.00 65 1009.2
20260504080237 43 141 0.0 0.0 0.00 0.00 0.00 66 1009.1
20260504070205 45 110 0.0 0.0 0.00 0.00 0.00 55 1008.8
20260504060125 45 124 0.0 0.0 0.00 0.00 0.00 57 1009.1
20260504050554 41 114 0.0 0.0 0.00 0.00 0.00 66 1008.8
20260504045548 41 114 0.0 0.0 0.00 0.00 0.00 67 1009.1
20260504045043 41 114 0.0 0.0 0.00 0.00 0.00 68 1009.1
20260504044540 40 113 0.0 0.0 0.00 0.00 0.00 66 1009.2
20260504044037 39 115 0.0 0.0 0.00 0.00 0.00 69 1009.3
20260504043534 38 114 0.0 0.0 0.00 0.00 0.00 71 1009.3
20260504043032 37 133 0.0 0.0 0.00 0.00 0.00 71 1009.3
20260504042529 37 135 0.0 0.0 0.00 0.00 0.00 72 1009.1
20260504042026 37 117 0.0 0.0 0.00 0.00 0.00 72 1009.1
20260504041521 37 117 0.0 0.0 0.00 0.00 0.00 71 1009.1
20260504041017 38 118 0.0 0.0 0.00 0.00 0.00 71 1008.8
20260504040515 38 117 0.0 0.0 0.00 0.00 0.00 70 1008.9
20260504040012 38 117 0.0 0.0 0.00 0.00 0.00 69 1008.9
20260504035509 39 129 0.0 0.0 0.00 0.00 0.00 67 1008.8
20260504035005 38 126 0.0 0.0 0.00 0.00 0.00 68 1008.8
20260504034503 38 150 0.9 0.9 0.00 0.00 0.00 68 1008.8
20260504034000 37 131 0.0 0.0 0.00 0.00 0.00 69 1008.7
20260504033457 36 105 0.9 0.9 0.00 0.00 0.00 74 1008.8
20260504032954 36 132 0.0 0.0 0.00 0.00 0.00 77 1008.6
20260504032451 35 132 0.0 0.0 0.00 0.00 0.00 77 1008.6
20260504031948 35 132 0.0 0.0 0.00 0.00 0.00 77 1008.6
20260504031445 35 132 0.0 0.0 0.00 0.00 0.00 78 1008.6
20260504030941 35 132 0.0 0.0 0.00 0.00 0.00 78 1008.5
20260504030439 35 132 0.0 0.0 0.00 0.00 0.00 77 1008.5
20260504025934 35 132 0.0 0.0 0.00 0.00 0.00 76 1008.6
20260504025431 35 132 0.0 0.0 0.00 0.00 0.00 76 1008.5
20260504024928 35 132 0.0 0.0 0.00 0.00 0.00 74 1008.4
20260504024425 36 132 0.0 0.0 0.00 0.00 0.00 73 1008.5
20260504023922 36 132 0.0 0.0 0.00 0.00 0.00 72 1008.4
20260504023419 36 132 0.0 0.0 0.00 0.00 0.00 72 1008.7
20260504022914 36 132 0.0 0.0 0.00 0.00 0.00 71 1008.4
20260504022411 37 132 0.0 0.0 0.00 0.00 0.00 70 1008.4
20260504021908 37 132 0.0 0.0 0.00 0.00 0.00 70 1008.4
20260504021405 37 132 0.0 0.0 0.00 0.00 0.00 69 1008.4
20260504020903 37 132 0.0 0.0 0.00 0.00 0.00 69 1008.4
20260504020359 38 132 0.0 0.0 0.00 0.00 0.00 68 1008.4
20260504015855 38 132 0.0 0.0 0.00 0.00 0.00 67 1008.5
20260504015351 38 132 0.0 0.0 0.00 0.00 0.00 67 1008.7
20260504014847 38 132 0.0 0.0 0.00 0.00 0.00 67 1008.3
20260504014343 39 132 0.0 0.0 0.00 0.00 0.00 67 1008.2
20260504013841 39 132 0.0 0.0 0.00 0.00 0.00 66 1008.3
20260504013339 39 132 0.0 0.0 0.00 0.00 0.00 66 1008.0
20260504012835 39 132 0.0 0.0 0.00 0.00 0.00 65 1008.1
20260504012333 39 132 0.0 0.0 0.00 0.00 0.00 65 1008.1
20260504011830 40 132 0.0 0.0 0.00 0.00 0.00 63 1008.2
20260504011327 40 132 0.0 0.0 0.00 0.00 0.00 64 1008.1
20260504010823 40 132 0.0 0.0 0.00 0.00 0.00 63 1008.1
20260504010318 40 132 0.0 0.0 0.00 0.00 0.00 61 1007.9
20260504005815 41 132 0.0 0.0 0.00 0.00 0.00 60 1007.9
20260504005312 41 132 0.0 0.0 0.00 0.00 0.00 61 1007.7
20260504004810 41 132 0.0 0.0 0.00 0.00 0.00 60 1007.8
20260504004307 41 132 0.0 0.0 0.00 0.00 0.00 58 1007.6